TimeEDT,TemperatureF,Dew PointF,Humidity,Sea Level PressureIn,VisibilityMPH,Wind Direction,Wind SpeedMPH,Gust SpeedMPH,PrecipitationIn,Events,Conditions,WindDirDegrees,DateUTC
12:58 AM,78.1,69.1,74,29.88,10.0,NE,17.3,-,N/A,,Partly Cloudy,50,2012-10-26 04:58:00
1:58 AM,77.0,68.0,74,29.86,10.0,NE,18.4,-,N/A,,Clear,50,2012-10-26 05:58:00
2:58 AM,77.0,68.0,74,29.84,10.0,NE,18.4,-,N/A,,Partly Cloudy,50,2012-10-26 06:58:00
3:58 AM,77.0,68.0,74,29.83,10.0,NE,19.6,24.2,N/A,,Partly Cloudy,50,2012-10-26 07:58:00
4:58 AM,77.0,66.9,71,29.81,10.0,NE,20.7,27.6,N/A,,Clear,40,2012-10-26 08:58:00
5:58 AM,78.1,66.9,68,29.81,10.0,NE,18.4,28.8,N/A,,Partly Cloudy,40,2012-10-26 09:58:00
6:58 AM,78.1,68.0,71,29.81,10.0,NE,17.3,-,N/A,,Partly Cloudy,40,2012-10-26 10:58:00
7:58 AM,78.1,68.0,71,29.81,7.0,NE,21.9,26.5,N/A,,Scattered Clouds,40,2012-10-26 11:58:00
9:58 AM,79.0,68.0,69,29.82,5.0,NNE,20.7,24.2,N/A,,Haze,30,2012-10-26 13:58:00
10:58 AM,79.0,68.0,69,29.82,5.0,NNE,20.7,29.9,N/A,,Haze,20,2012-10-26 14:58:00
11:37 AM,78.8,71.6,78,29.81,4.0,North,21.9,35.7,N/A,,Haze,10,2012-10-26 15:37:00
12:58 PM,77.0,71.1,82,29.80,3.0,North,24.2,32.2,N/A,,Haze,10,2012-10-26 16:58:00
1:02 PM,77.0,71.6,83,29.79,8.0,North,24.2,34.5,N/A,,Overcast,10,2012-10-26 17:02:00
1:21 PM,77.0,69.8,78,29.78,8.0,North,25.3,35.7,N/A,,Overcast,10,2012-10-26 17:21:00
1:58 PM,75.9,70.0,82,29.77,4.0,North,25.3,35.7,N/A,,Haze,360,2012-10-26 17:58:00
2:58 PM,75.0,69.1,82,29.75,4.0,North,21.9,33.4,N/A,,Haze,10,2012-10-26 18:58:00
3:02 PM,75.2,69.8,83,29.74,10.0,North,28.8,39.1,N/A,,Overcast,360,2012-10-26 19:02:00
3:42 PM,75.2,68.0,78,29.73,4.0,North,27.6,36.8,N/A,,Haze,10,2012-10-26 19:42:00
3:58 PM,75.0,68.0,79,29.73,4.0,North,28.8,35.7,N/A,,Haze,360,2012-10-26 19:58:00
4:02 PM,75.2,68.0,78,29.73,10.0,North,26.5,35.7,N/A,,Overcast,360,2012-10-26 20:02:00
4:08 PM,75.2,68.0,78,29.73,4.0,North,25.3,35.7,N/A,,Haze,10,2012-10-26 20:08:00
4:58 PM,75.0,68.0,79,29.72,4.0,North,25.3,40.3,N/A,,Haze,360,2012-10-26 20:58:00
5:02 PM,75.2,68.0,78,29.72,10.0,North,25.3,40.3,N/A,,Overcast,360,2012-10-26 21:02:00
5:08 PM,75.2,68.0,78,29.72,3.0,North,24.2,34.5,N/A,,Haze,10,2012-10-26 21:08:00
5:58 PM,75.9,68.0,76,29.71,3.0,North,29.9,40.3,N/A,,Haze,360,2012-10-26 21:58:00
6:02 PM,75.2,68.0,78,29.71,10.0,North,23.0,40.3,N/A,,Overcast,360,2012-10-26 22:02:00
6:58 PM,75.9,68.0,76,29.70,10.0,North,27.6,39.1,N/A,,Overcast,360,2012-10-26 22:58:00
7:03 PM,75.2,68.0,78,29.70,5.0,North,26.5,39.1,N/A,,Haze,10,2012-10-26 23:03:00
7:51 PM,75.2,66.2,73,29.71,5.0,North,28.8,42.6,N/A,,Haze,10,2012-10-26 23:51:00
7:58 PM,75.9,66.9,74,29.70,5.0,North,31.1,38.0,N/A,,Haze,10,2012-10-26 23:58:00
8:58 PM,73.9,64.9,73,29.70,10.0,North,25.3,33.4,N/A,,Mostly Cloudy,350,2012-10-27 00:58:00
9:53 PM,73.4,64.4,73,29.70,10.0,North,26.5,34.5,N/A,,Scattered Clouds,360,2012-10-27 01:53:00
9:58 PM,73.9,64.0,71,29.70,10.0,North,27.6,38.0,N/A,,Partly Cloudy,350,2012-10-27 01:58:00
10:24 PM,73.4,64.4,73,29.70,10.0,North,27.6,34.5,N/A,,Mostly Cloudy,360,2012-10-27 02:24:00
11:58 PM,73.0,64.9,76,29.68,10.0,North,23.0,39.1,N/A,,Overcast,360,2012-10-27 03:58:00